Weather in Kamenka

Russia / The Kabardino-Balkar Republic     43°32′13″N   43°30′40″E
temp.,
°C
wind,
m/s
gust,
m/s
humid.,
%
clouds,
%
prec.,
mm/h
press.,
hPa
HPBL,
m
2 march, tue
tue200:00−3wsw2274100 0.0 103025
03:00−3wsw2267100 0.0 103031
06:00−5wsw336524 0.0 103129
09:000n116711 0.0 1030168
12:00+2ene11760 0.0 1027555
15:00+3e11776 0.0 1026540
18:00−1e008013 0.0 102621
21:00−3wsw23768 0.0 102626
3 march, wed
wed300:00−3sw23700 0.0 102525
03:00−4wsw22651 0.0 102425
06:00−4sw226380 0.0 102322
09:00−1n116679 0.0 1022230
12:00+1ne1174100 0.0 1020490
15:00+1nne2274100 0.0 1020549
18:00−1nne1398100 1.3 1022267
21:00−2s1293100 2.3 102634
4 march, thu
thu400:00−4wsw2293100 0.3 102752
03:00−5sw228494 0.7 102851
06:00−5sw228993 0.1 102930
09:00−2ese118281 0.1 1028337
12:00+1ene218030 0.0 1026486
15:00+2ne217521 0.0 1024614
18:00−2ese118815 0.0 102421
21:00−3sw22808 0.0 102522
5 march, fri
fri500:00−3wsw22700 0.0 102422
03:00−3sw22660 0.0 102321
06:00−3sw22600 0.0 102221
09:00+2e11610 0.0 1021123
12:00+5ene11640 0.0 1019337
15:00+6e11650 0.0 1019385
18:00+2ssw12770 0.0 102022
21:00+1sw23640 0.0 102224
6 march, sat
sat600:00+1sw33520 0.0 102124
03:00+1wsw33510 0.0 102025
06:00+2wsw33503 0.0 102025
09:00+7wsw12537 0.0 101836
12:00+11ene11473 0.0 1015272
15:00+11ese125049 0.0 1014245
18:00+6wsw2356100 0.0 101424
21:00+4wsw3355100 0.0 101547